Volver al catálogo

STARLINK-34632

ActivoComunicacionesVLEO
NORAD 64792·PAYLOAD·🇺🇸 United States

Lanzado Jul 16, 2025 desde Vandenberg Space Force Base

Loading…

Próximos Pases (próximas 24 horas)

TLE

ActualizadoSource: CelesTrak SupGP

Época: Sep 15, 2026, 02:57 UTC

1 64792C 25150C   26258.12340278  .00041728  00000+0  34973-2 0  2588
2 64792  70.0028  16.7681 0003110 265.0086 345.7289 14.98306310    12

Sigue STARLINK-34632 en tiempo real con AllMySat

Download on the App Store